Weather History for Lone Rock, WI

Change the Weather History Date:

Sunday, December 9, 2012

  Actual Average Record
Temperature  
Mean Temperature 34 °F -  
Max Temperature 36 °F 35 °F 46 °F (1998)
Min Temperature 33 °F 20 °F -11 °F (2013)
Degree Days  
Heating Degree Days 30    
Moisture  
Dew Point 31 °F    
Average Humidity 88    
Maximum Humidity 96    
Minimum Humidity 75    
Precipitation  
Precipitation 0.22 in - - ()
Sea Level Pressure  
Sea Level Pressure 29.84 in    
Wind  
Wind Speed 8 mph (East)    
Max Wind Speed 13 mph    
Max Gust Speed -    
Visibility 2 miles    
Events Fog , Snow    
Averages and records for this station are not official NWS values.
T = Trace of Precipitation, MM = Missing Value Source: NWS Daily Summary

Daily Weather History Graph

Daily Weather History Graph

Search for Another Location

Airport:

Trip Planner

Search our weather history database for the weather conditions in past years. The results will help you decide how hot, cold, wet, or windy it might be!

Date:

Astronomy

Dec. 09, 2012 Rise Set
Actual Time 7:21 AM CST 4:25 PM CST
Civil Twilight 6:49 AM CST 4:57 PM CST
Nautical Twilight 6:13 AM CST 5:33 PM CST
Astronomical Twilight 5:38 AM CST 6:07 PM CST
Moon 2:49 AM CST (12/9) 1:36 PM CST (12/9)
Length of Visible Light 10h 08m
Length of Day
9h 03m
Waning Crescent, 18% of the Moon is Illuminated
Dec 9
Waning Crescent
Dec 13
New
Dec 19
First Quarter
Dec 28
Full
Jan 4
Last Quarter

Hourly Weather History & Observations

Time (CST) Temp. Windchill Dew Point Humidity Pressure Visibility Wind Dir Wind Speed Gust Speed Precip Events Conditions
1:56 AM 33.1 °F 24.9 °F 27.0 °F 78% 30.06 in 9.0 mi East 10.4 mph - N/A   Scattered Clouds
2:56 AM 35.1 °F 26.4 °F 28.0 °F 76% 30.04 in 10.0 mi East 12.7 mph - N/A   Overcast
3:56 AM 36.0 °F 27.5 °F 28.9 °F 76% 30.01 in 10.0 mi East 12.7 mph - N/A   Overcast
4:49 AM 35.6 °F 27.1 °F 28.4 °F 75% 30.01 in 10.0 mi East 12.7 mph - N/A   Overcast
4:56 AM 36.0 °F 27.5 °F 28.9 °F 76% 30.02 in 10.0 mi East 12.7 mph - N/A   Overcast
5:45 AM 35.6 °F 27.1 °F 28.4 °F 75% 30.01 in 1.8 mi East 12.7 mph - 0.00 in Snow Light Snow
5:56 AM 34.0 °F 25.0 °F 30.0 °F 85% 30.01 in 1.2 mi East 12.7 mph - 0.00 in Snow Light Snow
6:43 AM 33.8 °F 27.0 °F 30.2 °F 87% 30.00 in 1.5 mi ENE 8.1 mph - 0.00 in Snow Light Snow
6:56 AM 34.0 °F 27.2 °F 30.9 °F 89% 30.01 in 1.5 mi ENE 8.1 mph - 0.00 in Snow Light Snow
7:32 AM 33.8 °F 25.8 °F 30.2 °F 87% 29.99 in 0.8 mi East 10.4 mph - 0.01 in Snow Light Snow
7:36 AM 33.8 °F 27.0 °F 30.2 °F 87% 29.99 in 1.0 mi East 8.1 mph - 0.01 in Snow Light Snow
7:43 AM 33.8 °F 25.3 °F 30.2 °F 87% 29.99 in 1.0 mi East 11.5 mph - 0.02 in Snow Light Snow
7:49 AM 33.8 °F 24.8 °F 30.2 °F 87% 29.98 in 0.5 mi East 12.7 mph - 0.02 in Fog , Snow Snow
7:56 AM 33.1 °F 24.4 °F 30.9 °F 92% 29.99 in 0.2 mi East 11.5 mph - 0.02 in Fog , Snow Snow
8:30 AM 33.8 °F 25.8 °F 30.2 °F 87% 29.96 in 0.5 mi East 10.4 mph - 0.02 in Fog , Snow Snow
8:37 AM 33.8 °F 25.8 °F 30.2 °F 87% 29.95 in 0.5 mi East 10.4 mph - 0.02 in Fog , Snow Snow
8:56 AM 33.1 °F 24.4 °F 30.9 °F 92% 29.96 in 0.8 mi East 11.5 mph - 0.02 in Snow Light Snow
9:05 AM 33.8 °F 25.8 °F 30.2 °F 87% 29.95 in 0.8 mi East 10.4 mph - 0.01 in Snow Light Snow
9:45 AM 33.8 °F 25.8 °F 30.2 °F 87% 29.94 in 1.0 mi East 10.4 mph - 0.01 in Snow Light Snow
9:56 AM 34.0 °F 26.6 °F 30.9 °F 89% 29.95 in 1.0 mi East 9.2 mph - 0.01 in Snow Light Snow
10:07 AM 33.8 °F 26.4 °F 30.2 °F 87% 29.94 in 0.8 mi East 9.2 mph - 0.01 in Snow Light Snow
10:56 AM 33.1 °F 26.9 °F 30.9 °F 92% 29.91 in 0.5 mi ENE 6.9 mph - 0.04 in Fog , Snow Snow
11:38 AM 33.8 °F 28.6 °F 30.2 °F 87% 29.88 in 0.5 mi ENE 5.8 mph - 0.03 in Fog , Snow Snow
11:56 AM 34.0 °F 28.0 °F 30.9 °F 89% 29.88 in 0.5 mi East 6.9 mph - 0.05 in Fog , Snow Snow
12:48 PM 33.8 °F 27.0 °F 30.2 °F 87% 29.82 in 0.8 mi ENE 8.1 mph - 0.04 in Snow Light Snow
12:56 PM 34.0 °F 27.2 °F 30.9 °F 89% 29.83 in 0.8 mi East 8.1 mph - 0.04 in Snow Light Snow
1:04 PM 33.8 °F 27.7 °F 30.2 °F 87% 29.82 in 1.0 mi East 6.9 mph - 0.00 in Snow Light Snow
1:25 PM 33.8 °F 27.7 °F 30.2 °F 87% 29.81 in 2.5 mi East 6.9 mph - 0.00 in Snow Light Snow
1:32 PM 33.8 °F 25.8 °F 30.2 °F 87% 29.81 in 4.0 mi East 10.4 mph - 0.00 in Snow Light Snow
1:56 PM 34.0 °F 26.0 °F 30.9 °F 89% 29.80 in 3.0 mi East 10.4 mph - 0.01 in Snow Light Snow
2:06 PM 33.8 °F 25.3 °F 30.2 °F 87% 29.78 in 2.0 mi East 11.5 mph - 0.00 in Snow Light Snow
2:21 PM 33.8 °F 26.4 °F 30.2 °F 87% 29.79 in 1.5 mi East 9.2 mph - 0.01 in Snow Light Snow
2:32 PM 33.8 °F 25.3 °F 30.2 °F 87% 29.78 in 2.5 mi East 11.5 mph - 0.01 in Snow Light Snow
2:56 PM 34.0 °F 28.8 °F 32.0 °F 92% 29.79 in 2.5 mi East 5.8 mph - 0.01 in Snow Light Snow
3:12 PM 33.8 °F 27.0 °F 30.2 °F 87% 29.78 in 3.0 mi East 8.1 mph - 0.00 in Snow Light Snow
3:56 PM 35.1 °F 29.3 °F 30.9 °F 85% 29.78 in 8.0 mi East 6.9 mph - 0.00 in   Overcast
4:56 PM 34.0 °F - 30.9 °F 89% 29.78 in 3.0 mi Calm Calm - N/A   Overcast
5:02 PM 33.8 °F - 30.2 °F 87% 29.77 in 2.5 mi Calm Calm - N/A   Overcast
5:14 PM 33.8 °F - 32.0 °F 93% 29.77 in 1.5 mi Calm Calm - 0.01 in Snow Light Snow
5:28 PM 33.8 °F - 32.0 °F 93% 29.77 in 1.5 mi Calm Calm - 0.01 in Snow Light Snow
5:36 PM 33.8 °F - 30.2 °F 87% 29.77 in 1.8 mi Calm Calm - 0.01 in Snow Light Snow
5:56 PM 33.1 °F - 32.0 °F 96% 29.77 in 1.8 mi Calm Calm - 0.01 in Snow Light Snow
6:03 PM 33.8 °F - 32.0 °F 93% 29.76 in 1.8 mi Calm Calm - 0.00 in Snow Light Snow
6:16 PM 33.8 °F - 30.2 °F 87% 29.77 in 2.0 mi Calm Calm - 0.01 in Snow Light Snow
6:54 PM 33.8 °F - 32.0 °F 93% 29.74 in 3.0 mi Calm Calm - 0.01 in   Overcast
6:56 PM 33.1 °F - 32.0 °F 96% 29.75 in 3.0 mi Calm Calm - 0.01 in   Overcast
7:09 PM 33.8 °F - 32.0 °F 93% 29.74 in 2.0 mi Calm Calm - 0.00 in Snow Light Snow
7:44 PM 33.8 °F 28.6 °F 32.0 °F 93% 29.75 in 3.0 mi West 5.8 mph - 0.00 in   Overcast
7:56 PM 33.1 °F 30.0 °F 32.0 °F 96% 29.75 in 2.5 mi West 3.5 mph - 0.00 in Snow Light Snow
8:07 PM 33.8 °F - 32.0 °F 93% 29.73 in 1.5 mi Calm Calm - 0.00 in Snow Light Snow
8:29 PM 33.8 °F - 30.2 °F 87% 29.73 in 2.5 mi Calm Calm - 0.00 in Snow Light Snow
8:42 PM 33.8 °F - 32.0 °F 93% 29.73 in 3.0 mi Calm Calm - 0.00 in   Overcast
8:56 PM 33.1 °F - 32.0 °F 96% 29.73 in 3.0 mi Calm Calm - 0.00 in   Overcast
9:12 PM 33.8 °F 30.8 °F 30.2 °F 87% 29.73 in 3.0 mi WSW 3.5 mph - N/A   Overcast
9:39 PM 33.8 °F 30.8 °F 30.2 °F 87% 29.72 in 2.5 mi WSW 3.5 mph - N/A   Overcast
9:56 PM 33.1 °F 30.0 °F 30.9 °F 92% 29.73 in 2.5 mi WSW 3.5 mph - N/A   Overcast
10:11 PM 33.8 °F 30.8 °F 30.2 °F 87% 29.72 in 2.5 mi West 3.5 mph - N/A   Overcast
10:26 PM 33.8 °F 29.6 °F 30.2 °F 87% 29.72 in 1.8 mi West 4.6 mph - 0.00 in Snow Light Snow
10:43 PM 33.8 °F 30.8 °F 30.2 °F 87% 29.73 in 1.8 mi West 3.5 mph - 0.00 in Snow Light Snow
10:49 PM 33.8 °F 30.8 °F 30.2 °F 87% 29.73 in 2.0 mi West 3.5 mph - 0.00 in Snow Light Snow
10:56 PM 33.1 °F 27.7 °F 30.9 °F 92% 29.74 in 2.5 mi West 5.8 mph - 0.00 in   Overcast
11:13 PM 33.8 °F 29.6 °F 30.2 °F 87% 29.72 in 1.5 mi West 4.6 mph - 0.00 in Snow Light Snow
11:35 PM 33.8 °F 30.8 °F 30.2 °F 87% 29.72 in 2.0 mi West 3.5 mph - 0.00 in   Overcast
11:56 PM 33.1 °F 26.9 °F 30.9 °F 92% 29.73 in 4.0 mi West 6.9 mph - 0.00 in   Overcast